Back to catalog

DELTA 1 DEB

AlivePO
NORAD 18779·DEBRIS·🇺🇸 United States

Launched Mar 5, 1978 from Vandenberg Space Force Base

Loading…

Next Passes (next 24 hours)

TLE

FreshSource: Space-Track

Epoch: Sep 13, 2026, 19:45 UTC

1 18779U 78026HJ  26256.82351858  .00002352  00000-0  73621-3 0  9990
2 18779  99.0658 279.1458 0061608 245.2263 290.4261 14.40625110  6107

Track DELTA 1 DEB in real time with AllMySat

Download on the App Store